This demonstration page uses our WeatherBlox Daily Observations layout. Learn more.

39.92423, -83.80882

Hourly Observations for December 3, 2019

Temp ( °F °C ) Dew Point ( °F °C ) Humidity (%) Winds ( mph kmh ) Pressure ( in mb ) Visibility ( mi km ) Precip ( " mm )
12:56 am 00:56 Cloudy 32 0 31 -0.6 96 96 Calm 29.98 1015 10 16.0934 0 0
1:39 am 01:39 Cloudy 34 1 32 0 93 93 W 5 7 30.01 1016 10 16.0934 0 0
1:56 am 01:56 Cloudy 33 0.6 32 0 96 96 W 14 22 30 1016 9 14.48406 0 0
2:08 am 02:08 Cloudy 34 1 32 0 93 93 WNW 10 17 30.02 1017 9 14.48406 0 0
2:56 am 02:56 Cloudy with Light Snow 32 0 31 -0.6 96 96 WNW 10 17 30 1016 4 6.43736 0.001 0.001
3:56 am 03:56 Cloudy with Light Snow 32 0 31 -0.6 96 96 WNW 8 13 29.98 1015 8 12.87472 0.001 0.001
4:37 am 04:37 Cloudy with Light Wintry Mix 32 0 30 -1 93 93 W 8 13 29.99 1016 10 16.0934 0.001 0.001
4:54 am 04:54 Cloudy 32 0 30 -1 93 93 W 12 19 29.99 1016 10 16.0934 0.001 0.001
4:56 am 04:56 Cloudy 32 0 30 -1.1 92 92 WNW 10 17 29.98 1015 10 16.0934 0.001 0.001
5:56 am 05:56 Cloudy 31 -0.6 29 -1.7 92 92 W 7 11 29.96 1015 10 16.0934 0 0
6:56 am 06:56 Cloudy 31 -0.6 29 -1.7 92 92 WSW 12 19 29.96 1015 10 16.0934 0 0
7:56 am 07:56 Cloudy 31 -0.6 30 -1.1 96 96 WSW 9 15 29.96 1015 10 16.0934 0 0
8:56 am 08:56 Cloudy 31 -0.6 29 -1.7 92 92 W 10 17 29.95 1014 10 16.0934 0 0
9:56 am 09:56 Cloudy with Light Snow 31 -0.6 29 -1.7 92 92 WSW 12 19 29.94 1014 9 14.48406 0.001 0.001
10:56 am 10:56 Cloudy 31 -0.6 29 -1.7 92 92 WSW 14 22 29.93 1013 10 16.0934 0.001 0.001
11:56 am 11:56 Cloudy 31 -0.6 29 -1.7 92 92 WSW 13 20 29.89 1012 10 16.0934 0 0
12:56 pm 12:56 Cloudy 31 -0.6 29 -1.7 92 92 SW 16 26 29.85 1011 10 16.0934 0 0
1:56 pm 13:56 Cloudy 31 -0.6 30 -1.1 96 96 SW 13 20 29.84 1010 10 16.0934 0 0
2:56 pm 14:56 Cloudy 32 0 29 -1.7 88 88 SW 9 15 29.81 1010 10 16.0934 0 0
3:22 pm 15:22 Cloudy 34 1 28 -2 81 81 SW 13 20 29.81 1009 10 16.0934 0 0
3:49 pm 15:49 Cloudy 34 1 28 -2 81 81 SSW 8 13 29.81 1009 10 16.0934 0 0
3:56 pm 15:56 Cloudy 32 0 28 -2.2 85 85 SSW 9 15 29.79 1009 10 16.0934 0 0
4:56 pm 16:56 Mostly Cloudy 33 0.6 28 -2.2 82 82 SSW 10 17 29.79 1009 10 16.0934 0 0
5:56 pm 17:56 Cloudy 33 0.6 29 -1.7 85 85 SSW 13 20 29.78 1008 10 16.0934 0 0
6:56 pm 18:56 Cloudy with Light Snow 33 0.6 30 -1.1 89 89 SSW 9 15 29.75 1008 9 14.48406 0.001 0.001
7:56 pm 19:56 Cloudy 34 1.1 30 -1.1 85 85 SW 12 19 29.75 1007 10 16.0934 0.001 0.001
8:56 pm 20:56 Partly Cloudy 33 0.6 29 -1.7 85 85 SW 13 20 29.74 1007 10 16.0934 0 0
9:56 pm 21:56 Clear 33 0.6 29 -1.7 85 85 SW 14 22 29.72 1006 10 16.0934 0 0
10:56 pm 22:56 Clear 32 0 29 -1.7 88 88 SW 13 20 29.7 1006 10 16.0934 0 0
11:56 pm 23:56 Mostly Cloudy 33 0.6 29 -1.7 85 85 SW 13 20 29.7 1006 10 16.0934 0 0

Powered by AerisWeather